COSMOS 1275 DEB

Satellite information

Favourite Embed

Satellite Type and Status

DEBRISIN ORBIT

Key statistics

Satellite COSMOS 1275 DEB at a glance.

Uptime

16213

Days in orbit

Revolutions

≈ 13.9

Per day

Orbit

LEO

Low Earth Orbit

Inclination

83.1

Latest

Satellite identification and parameters

Extended collection of information and parameters for COSMOS 1275 DEB.

Object identification

Identified? True

Debris? True

Object name: COSMOS 1275 DEB

International designator: 1981-053RL

Object number (NORAD): 42148

Object ID (CCSDS): 42148

Country: COMMONWEALTH OF INDEPENDENT STATES (CIS)

Current information (Y/N): Y

RCS size: SMALL

Orbital parameters

Period: 103.958 minutes

Inclination: 83.0967 deg

SMA: 7323.706 km

Apoapsis: 1004.004 km

Periapsis: 887.139 km

RAAN: 18.5239 deg

Eccentricy: 0.00797853

Argument of periapsis: 159.2218 deg

Mean anomaly: 201.2219 deg

Mean motion: 13.85180555 rev/day

Mean motion (dot): 0.00001608 rev/day2

B* drag term: 0.0013699756 1/REarth

Two-line elements (TLE)

Creation date: Oct. 13, 2025, 10:50 a.m.

Reference frame: TEME

Reference center: EARTH

Epoch: Oct. 12, 2025, 11:36 p.m. UTC

TLE line 0: 0 COSMOS 1275 DEB

TLE line 1: 1 42148U 81053RL 25285.98387530 .00001608 00000-0 13700-2 0 9999

TLE line 2: 2 42148 83.0967 18.5239 0079785 159.2218 201.2219 13.85180555599489

Live tracking on map

Real-time ground track for satellite COSMOS 1275 DEB.

In-orbit conjunctions

A list of the most updated potential collisions computed for object COSMOS 1275 DEB.

Target Orbit TCA Probability of collision Miss distance Type
CZ-4 DEB SSO 2025-02-05 07:45:15 0.0001097524 141.0 (m) DEBRIS
METEOR 2-11 DEB LEO 2024-11-22 11:13:03 0.0006802108 168.0 (m) DEBRIS

Associated space launch

Navigation satellite providing location information for the Tsiklon-B navigation system

COSMOS 1275 DEB was lifted into orbit during the mission ‘Kosmos-3M | Parus 27’, on board a Kosmos-3M space rocket.

The launch took place on June 4, 1981, 3:41 p.m. from 132/2.

For more information about the launch, click the button.

Launch to space Kosmos-3M | Parus 27
Kosmos-3M | Parus 27

Agency: N/A

Status: Launch Successful

Launch date: June 4, 1981, 3:41 p.m. UTC

Rocket: Kosmos-3M

Launch pad: 132/2

Location: Plesetsk Cosmodrome, Russian Federation

...

Latest news about this satellite

There are no fresh news available about this satellite. Check back as we update our databases every day.


Newsletter sign-up

Weekly statistics, charts and insights to help you stay on top of the space industry.